Location: B�retswil
(47.3376°N, 8.8534°E)
Time: 10:07:20
(UTC+00:00)

Daily predictions for brighter satellites

Satellite Brightness Start Highest point End
(mag) Time Altitude Azimuth Time Altitude Azimuth Time Altitude Azimuth
USA 267 3.4 16:00:28 10° E 16:06:51 58° NNE 16:13:14 10° NW
Cosmos 2369 Rocket 3.3 16:04:06 10° N 16:08:24 22° NE 16:12:43 10° E
Nadezhda 4 Rocket 4.1 16:03:38 10° S 16:09:52 66° E 16:16:07 10° NNE
NOSS 0 Rocket 4.2 16:04:14 10° SSW 16:10:28 77° WNW 16:16:45 10° NNE
Cosmos 1743 3.8 16:14:45 10° NNE 16:17:56 24° ENE 16:21:06 10° SE
SL-16 R/B 2.7 16:12:44 10° S 16:18:03 42° ESE 16:23:24 10° NE
PSLV R/B 4.3 16:14:05 10° NNE 16:18:05 47° E 16:22:02 10° S
Envisat 3.8 16:14:17 10° ESE 16:18:37 29° ENE 16:22:58 10° N
STARLINK-43 4.4 16:15:54 10° SSW 16:19:14 32° SE 16:22:35 10° ENE
Helios 1A Rocket 3.5 16:19:17 10° S 16:23:19 62° WSW 16:27:22 10° NNW
BREEZE-M DEB (TANK) 2.6 16:17:28 10° WNW 16:24:09 76° SSW 16:26:47 10° ESE
RESURS DK-1 4.4 16:20:58 10° W 16:24:17 23° NW 16:27:36 10° N
Cosmos 2237 Rocket 2.5 16:19:06 10° SW 16:24:47 72° WNW 16:30:30 10° NNE
Cosmos 2251 Rocket 4.1 16:19:50 10° SW 16:25:02 57° WNW 16:30:15 10° NNE
Cosmos 407 Rocket 4.0 16:21:19 10° S 16:26:10 41° ESE 16:31:07 10° NE
Cosmos 1943 Rocket 2.9 16:22:25 10° NNW 16:27:26 32° NE 16:32:23 10° ESE
Cosmos 1500 4.5 16:25:42 10° NNW 16:29:17 44° W 16:32:50 10° SSW
Cosmos 1536 3.0 16:25:45 10° NNW 16:29:46 76° W 16:33:44 10° S
Cosmos 2219 Rocket 3.7 16:25:14 10° WSW 16:30:10 31° NW 16:35:09 10° NNE
Cosmos 2026 Rocket 4.3 16:25:16 10° SSE 16:30:55 43° E 16:36:38 10° NNE
Cosmos 1812 3.6 16:27:18 10° SSW 16:31:05 53° WNW 16:34:53 10° N
Feng Yun 1-1 Rocket 4.2 16:25:48 10° SSE 16:31:07 66° ENE 16:36:31 10° N
STARLINK-67 3.5 16:29:05 10° NW 16:31:38 32° NNE 16:33:31 15° ENE
Cosmos 1689 Rocket 3.5 16:29:51 10° N 16:32:43 39° WNW 16:35:33 10° SW
Cosmos 1782 Rocket 3.8 16:30:11 10° N 16:34:23 46° ENE 16:38:34 10° SSE
CZ-4C R/B 3.8 16:33:07 10° SE 16:35:31 13° ESE 16:37:20 12° E
Lacrosse 5 rocket 2.7 16:32:45 10° WNW 16:36:25 27° NNW 16:39:35 12° NE
Cosmos 2333 Rocket 3.9 16:31:30 10° WSW 16:36:26 29° NW 16:41:25 10° NNE
FALCON 9 DEB 3.5 16:33:47 10° WSW 16:37:14 55° NNW 16:39:56 15° NE
AQUARIUS 4.1 16:33:31 10° SSE 16:37:58 65° ENE 16:42:26 10° N
STARLINK-46 4.0 16:38:02 10° NW 16:40:16 23° N 16:41:28 17° NE
SL-4 R/B 2.3 16:37:10 10° WNW 16:40:48 45° N 16:43:44 16° ENE
Lacrosse 5 3.4 16:41:59 10° S 16:45:40 20° ESE 16:48:08 15° E
Cosmos 1703 Rocket 3.6 16:41:46 10° S 16:46:13 70° E 16:50:42 10° NNE
Okean 1 3.7 16:44:41 10° SSE 16:48:25 41° E 16:52:10 10° NNE
Cosmos 405 Rocket 3.7 16:48:26 10° NNE 16:51:26 23° ENE 16:54:27 10° SE
Okean 2 Rocket 3.7 16:47:50 10° N 16:51:55 33° ENE 16:56:01 10° SE
Aureole 1 Rocket 3.0 16:51:29 10° SW 16:54:29 52° WNW 16:57:58 10° NNE
NOAA 12 4.0 16:50:18 10° SSE 16:55:32 68° ENE 17:00:48 10° N
ATLAS 2AS CENTAUR R/B 4.3 16:48:58 10° WNW 16:55:38 28° NNW 17:01:46 11° NE
STARLINK-60 4.0 16:53:32 10° W 16:56:44 38° NNW 16:58:26 22° NE
BREEZE-M R/B 2.8 16:51:31 10° WNW 16:57:19 76° NNE 16:59:21 22° E
Sich 1 Rocket 3.5 16:54:33 10° N 16:58:56 63° E 17:03:16 10° SSE
Cosmos 2221 Rocket 4.2 16:55:06 10° SSE 16:59:08 35° E 17:02:14 15° NNE
Cosmos 1441 Rocket 3.6 16:58:27 10° NNW 17:02:13 63° W 17:05:55 10° S
H-2A R/B 3.2 17:01:25 10° S 17:05:03 61° W 17:08:43 10° NNW
SMAP 3.6 17:01:54 10° S 17:06:31 62° WSW 17:11:09 10° NNW
Cosmos 1763 Rocket 4.5 17:03:07 10° N 17:07:12 23° NE 17:07:43 23° ENE
Meteor 1-19 Rocket 4.4 17:02:17 10° SSE 17:07:29 46° E 17:12:40 10° NNE
Cosmos 2297 4.5 17:04:02 10° NW 17:09:36 56° WSW 17:15:05 10° S
Okean O Rocket 4.3 17:06:37 10° SW 17:09:56 21° W 17:13:15 10° NW
COBE Rocket 4.0 17:05:17 10° N 17:09:57 74° WNW 17:14:41 10° SSW
Cosmos 1627 Rocket 4.4 17:04:11 10° S 17:10:17 89° ESE 17:16:30 10° N
Okean 1-7 3.2 17:07:03 10° SSW 17:11:24 77° W 17:15:48 10° N
STARLINK-52 3.9 17:08:44 10° W 17:12:07 44° NNW 17:13:24 30° NE
Cosmos 1666 4.5 17:09:35 10° NNW 17:12:59 33° W 17:16:21 10° SSW
CZ-4 R/B 1.6 17:10:11 10° SE 17:13:49 41° ENE 17:17:28 10° N
USA 215 3.3 17:10:07 19° NE 17:15:02 82° NNW 17:21:35 10° WSW
Cosmos 1867 3.9 17:09:39 10° NW 17:15:06 70° WSW 17:20:30 10° SSE
YAOGAN 6 2.5 17:13:38 10° SSE 17:17:09 59° ENE 17:20:44 10° N
BREEZE-M DEB (TANK) 2.4 17:12:49 10° W 17:17:14 62° SSW 17:18:32 29° ESE
Abrixas rocket 2.6 17:16:23 10° SW 17:19:16 42° SSE 17:19:38 40° SE
STARLINK-29 4.0 17:16:57 10° W 17:20:18 39° NNW 17:21:14 32° NNE
Cosmos 1515 4.0 17:18:03 10° SSE 17:21:37 41° E 17:21:57 40° ENE
Cosmos 614 Rocket 4.2 17:16:54 10° SSW 17:21:57 66° WNW 17:26:38 12° NNE
Cosmos 1300 Rocket 3.6 17:19:40 10° N 17:23:52 49° ENE 17:28:02 10° SSE
Cosmos 1975 2.7 17:20:26 10° N 17:24:27 83° E 17:28:28 10° S
Cosmos 1190 Rocket 4.1 17:19:25 10° SSW 17:24:37 76° WNW 17:29:07 14° NNE
COSMO-SKYMED 1 2.6 17:23:32 24° NNE 17:26:03 58° E 17:30:19 10° S
Cosmos 676 Rocket 3.9 17:22:26 10° SSW 17:27:35 73° ESE 17:30:53 23° NNE
STARLINK-48 3.8 17:24:52 10° SW 17:28:37 49° SE 17:29:17 43° ESE
YAOGAN 1 2.6 17:25:10 10° SSE 17:29:21 51° ENE 17:33:34 10° N
Cosmos 1655 Rocket 4.0 17:24:21 10° S 17:30:32 61° E 17:36:41 10° NNE
Cosmos 1954 Rocket 3.9 17:27:48 10° SSW 17:32:57 76° ESE 17:36:02 25° NNE
Meteor 2-9 Rocket 4.2 17:28:58 10° N 17:34:52 84° E 17:40:37 10° SSE
Meteor 1-12 Rocket 4.2 17:30:24 10° N 17:36:13 62° ENE 17:41:53 10° SSE
Okean-O 3.4 17:32:42 10° S 17:37:02 53° W 17:41:24 10° NNW
Okean 3 3.3 17:33:14 10° S 17:37:22 66° E 17:38:35 43° NNE
NOAA 11 4.3 17:32:39 10° SE 17:37:55 52° ENE 17:43:15 10° N
Lacrosse 4 Rocket 3.5 17:35:08 10° N 17:36:09 14° N 17:36:09 14° N
NOSS 7 (E) 4.2 17:36:54 10° SW 17:40:25 87° S 17:40:25 87° S
Cosmos 1943 3.5 17:36:42 10° S 17:42:00 44° ESE 17:42:49 41° E
Cosmos 1656 Rocket 3.9 17:40:37 10° NNW 17:45:50 44° NE 17:46:04 44° ENE
IRIDIUM 104 4.3 17:40:54 10° SSE 17:46:00 59° E 17:48:55 25° NNE
USA 267 3.7 17:43:24 10° SE 17:49:52 60° SW 17:56:21 10° WNW
Cosmos 1140 Rocket 4.0 17:45:41 10° SW 17:50:43 57° WNW 17:54:13 20° N
Cosmos 2369 Rocket 2.2 17:47:28 10° NNW 17:53:08 82° WSW 17:58:48 10° SSE
NOSS 3-1 (C) 4.0 17:46:23 10° NW 17:53:51 81° NE 18:01:10 15° SE
Meteor 1-13 Rocket 4.2 17:49:29 10° S 17:54:56 56° E 17:55:45 51° ENE
IRIDIUM 114 4.2 17:49:57 10° S 17:55:08 71° E 17:58:03 27° NNE
STARLINK-43 3.8 17:53:24 10° WSW 17:56:47 56° NW 17:56:47 56° NW
Envisat 4.2 17:52:41 10° SSW 17:57:28 42° W 18:02:18 10° NNW
S3M 4.0 17:51:19 10° N 17:57:31 79° W 18:03:37 10° S
Cosmos 2266 Rocket 3.9 17:54:34 10° S 18:00:56 70° E 18:05:45 18° NNE
Cosmos 1741 Rocket 4.2 17:55:55 10° S 18:00:30 52° SE 18:00:30 52° SE
SL-16 R/B 3.5 17:57:01 10° WSW 18:02:15 36° NW 18:06:14 16° N
Cosmos 2151 Rocket 3.7 17:59:20 10° NNW 18:03:44 71° W 18:08:06 10° S
Cosmos 468 Rocket 3.8 17:58:36 10° NNW 18:03:50 76° ENE 18:04:47 58° SE
IRIDIUM 103 4.2 17:59:04 10° S 18:04:17 84° E 18:07:13 27° N
USA 229 DEB 3.8 17:58:01 10° NW 18:05:17 88° SW 18:10:45 21° SE
USA 229 3.8 17:58:07 10° NW 18:05:22 88° SW 18:10:45 21° SE
Cosmos 1461 4.5 18:02:27 10° SSW 18:04:07 23° S 18:04:07 23° S
USA 81 3.9 18:02:24 10° S 18:07:17 66° ESE 18:07:17 66° ESE
Cosmos 1603 3.6 18:03:37 10° SSW 18:09:22 90° WNW 18:10:52 52° NNE
Cosmos 2237 Rocket 4.5 18:06:16 10° W 18:09:55 17° NW 18:13:34 10° N
NOSS 3-1 (A) 3.9 18:03:25 10° NW 18:10:50 73° NE 18:14:14 40° ESE
Cosmos 1943 Rocket 3.0 18:05:59 10° NW 18:11:25 50° WSW 18:16:46 10° S
Lacrosse 5 rocket 3.5 18:13:29 10° NW 18:15:14 18° NNW 18:15:14 18° NNW
Cosmos 1850 Rocket 4.0 18:12:14 10° SSW 18:17:00 70° SSE 18:17:00 70° SSE
SL-4 R/B 3.1 18:16:43 10° WNW 18:19:21 42° WNW 18:19:21 42° WNW
CZ-4C R/B 2.0 18:17:42 10° SW 18:22:34 81° S 18:22:34 81° S
CSL-04 Rocket 4.3 18:21:53 10° S 18:27:00 52° W 18:32:13 10° NNW
Lacrosse 5 2.1 18:22:58 10° SW 18:27:22 67° WSW 18:27:22 67° WSW
Meteor 2-4 Rocket 4.3 18:28:22 10° SSW 18:34:06 55° WNW 18:37:11 27° N
Gbstr 26 Del rocket 4.0 18:38:59 10° WSW 18:45:06 69° SW 18:45:06 69° SW
Cosmos 2315 Rocket 4.1 18:40:19 10° NNW 18:46:38 71° W 18:52:49 10° S
Cosmos 2344 4.4 18:38:53 10° NW 18:48:37 83° SW 18:58:09 23° SSE
CZ-4 R/B 4.1 18:46:28 10° SW 18:49:04 17° W 18:51:40 10° NW
ATLAS 2AS CENTAUR R/B 4.3 18:43:01 10° NW 18:49:12 25° N 18:49:12 25° N
USA 215 3.9 18:57:28 43° N 18:57:39 43° NNW 19:03:44 10° W
